Location: Blackwall
(51.5097°N, 0.0016°W)
Time: 23:26:45
(UTC+00:00)

Cosmos 1513 Rocket - Pass Details

Date: 15 May 2026
Orbit: 938 x 1008 km, 82.9° (Epoch: 6 June)

Event Time Altitude Azimuth Distance (km) Brightness Sun altitude
Exits shadow 21:15:00 - 182° (S) 3,154 6.7 -11.1°
Reaches altitude 10° 21:16:11 10° 181° (S) 2,709 6.4 -11.3°
Maximum altitude 21:22:22 77° 97° (E) 989 4.5 -11.8°
Drops below altitude 10° 21:28:29 10° 12° (NNE) 2,683 7.4 -12.4°
Sets 21:30:58 0° 12° (NNE) 3,626 8.2 -12.6°
